Regional Weather Roundup
Issued by NWS

Home | Current Version | Previous Version | Graphics & Text | Print | Product List | Glossary On
Versions: 1 2 3 4 5 6 7 8 9 10 11 12 13 14 15 16 17 18 19 20 21 22 23 24 25 26 27 28 29 30 31 32 33 34 35 36 37 38 39 40 41 42 43 44 45 46 47 48 49 50
770
ASUS44 KLIX 202011
RWRLA
LOUISIANA WEATHER ROUNDUP
NATIONAL WEATHER SERVICE NEW ORLEANS LA
300 PM CDT MON APR 20 2015

NOTE: "FAIR" INDICATES FEW OR NO CLOUDS BELOW 12,000 FEET WITH NO
      SIGNIFICANT WEATHER AND/OR OBSTRUCTIONS TO VISIBILITY.
      SKY/WX - SKY CONDITION AND SIGNIFICANT WEATHER.
      TMP - AIR TEMPERATURE.    DP   - DEWPOINT TEMPERATURE.
      RH  - RELATIVE HUMIDITY.  PRES - PRESSURE.
      HX  - HEAT INDEX.         WCI  - WIND CHILL INDEX.

*  THESE STATIONS ARE NOT NWS OR FAA STATIONS AND ARE NOT UNDER
   NWS QUALITY CONTROL.

LAZ040-048-061>063-065-066-069-202100-
SOUTHEAST LOUISIANA

CITY           SKY/WX    TMP DP  RH WIND       PRES   REMARKS
N.O. AUDUBON     N/A     82  64  54 MISG        N/A
N.O. INTL ARPT PTSUNNY   77  56  48 N15G21    29.85S
N.O. LAKEFRONT MOSUNNY   79  58  48 NW20      29.85S
SLIDELL        MOSUNNY   78  55  44 NW8G18    29.83S
BATON ROUGE    PTSUNNY   71  53  52 NW10G21   29.88F
BOOTHVILLE     SUNNY     80  59  48 VRB5      29.85F
BELLE CHASSE   PTSUNNY   81  56  42 NW8       29.83S
BOGALUSA*        N/A     77  53  43 NW6G16    29.86S
GALLIANO*      PTCLDY    83  60  46 W7        29.84F
NEW ROADS*     FAIR      71  52  51 NW13G18   29.91S
GONZALES*      FAIR      74  57  55 NW8       29.87S
HAMMOND*       PTSUNNY   77  52  41 NW13G20   29.87S
HOUMA*         MOSUNNY   81  55  41 NW17      29.85S
PORT FOURCHON* CLEAR     79  57  47 W10       29.88F

$$

LAZ041-044-053-054-202100-
SOUTHWEST LOUISIANA

CITY           SKY/WX    TMP DP  RH WIND       PRES   REMARKS
LAKE CHARLES   MOSUNNY   74  48  39 N14       29.91F
LAFAYETTE      PTSUNNY   74  52  46 N13G22    29.90F
PATTERSON      MOSUNNY   73  54  49 N12G17    29.88F
SALT POINT       N/A     75  55  49 NW9       29.86F
NEW IBERIA     MOSUNNY   74  49  41 N14       29.90F
CHENAULT AIRPK NOT AVBL

$$

LAZ027-028-202100-
CENTRAL LOUISIANA

CITY           SKY/WX    TMP DP  RH WIND       PRES   REMARKS
FORT POLK      SUNNY     70  44  38 VRB7      29.93F
ALEXANDRIA INT SUNNY     70  44  39 NW13G20   29.91F
ALEXANDRIA     SUNNY     72  44  36 CALM      29.91F

$$

LAZ001-002-202100-
NORTHWEST LOUISIANA

CITY           SKY/WX    TMP DP  RH WIND       PRES   REMARKS
SHREVEPORT     MOSUNNY   70  38  31 NW14      29.94F
BARKSDALE AFB  SUNNY     70  36  28 N14       29.94F
DTN SHREVEPORT SUNNY     69  38  32 NW8       29.94F

$$

LAZ014-016-202100-
NORTHEAST LOUISIANA

CITY           SKY/WX    TMP DP  RH WIND       PRES   REMARKS
MONROE         SUNNY     70  42  36 N8        29.92F
TALLULAH       SUNNY     70  45  40 NW10      29.90F

$$




USA.gov is the U.S. government's official web portal to all federal, state and local government web resources and services.